Location: Mexico
(19.4000°N, 99.1500°W)
Time: 09:38:40
(UTC-06:00)

ISS - Pass Details

Date: 15 February 2018
Orbit: 403 x 406 km, 51.6° (Epoch: 26 February)

Event Time Altitude Azimuth Distance (km) Brightness Sun altitude
Rises 19:58:06 0° 301° (WNW) 2,308 0.8 -19.8°
Reaches altitude 10° 20:00:34 10° 283° (WNW) 1,448 0.0 -20.4°
Maximum altitude 20:02:57 19° 235° (SW) 1,025 -1.1 -20.9°
Drops below altitude 10° 20:05:21 10° 187° (S) 1,447 -0.9 -21.5°
Enters shadow 20:06:18 - 178° (S) 1,757 -0.6 -21.7°
